| time (UTC) | temp F | wind direction | speed MPH | gust MPH | rain 1hr in | rain 24hr in | rain mn in | humidity % | barometer mb |
| 20260504050022 | 71 | 214 | 0.0 | 4.0 | 0.00 | 0.00 | 0.00 | 56 | 1002.4 |
| 20260504044524 | 72 | 276 | 0.0 | 3.0 | 0.00 | 0.00 | 0.00 | 54 | 1002.4 |
| 20260504043021 | 74 | 231 | 0.0 | 0.0 | 0.00 | 0.00 | 0.00 | 53 | 1002.4 |
| 20260504041536 | 74 | 232 | 0.0 | 0.0 | 0.00 | 0.00 | 0.00 | 52 | 1002.4 |
| 20260504040022 | 75 | 258 | 0.0 | 0.0 | 0.00 | 0.00 | 0.00 | 51 | 1002.4 |
| 20260504034520 | 76 | 263 | 0.0 | 0.0 | 0.00 | 0.00 | 0.00 | 52 | 1002.4 |
| 20260504033019 | 78 | 263 | 0.0 | 0.0 | 0.00 | 0.00 | 0.00 | 49 | 1002.4 |
| 20260504031520 | 80 | 265 | 0.0 | 0.0 | 0.00 | 0.00 | 0.00 | 47 | 1002.4 |
| 20260504030020 | 81 | 265 | 0.0 | 0.0 | 0.00 | 0.00 | 0.00 | 46 | 1002.4 |
| 20260504024519 | 82 | 255 | 0.0 | 0.0 | 0.00 | 0.00 | 0.00 | 46 | 1002.4 |
| 20260504023018 | 83 | 259 | 0.0 | 0.0 | 0.00 | 0.00 | 0.00 | 46 | 1002.4 |
| 20260504021518 | 82 | 264 | 0.0 | 4.0 | 0.00 | 0.00 | 0.00 | 44 | 1002.4 |
| 20260504020030 | 82 | 279 | 0.0 | 0.0 | 0.00 | 0.00 | 0.00 | 47 | 1002.4 |
| 20260504014520 | 82 | 279 | 0.0 | 0.0 | 0.00 | 0.00 | 0.00 | 44 | 1002.4 |
| 20260504013016 | 83 | 17 | 0.0 | 0.0 | 0.00 | 0.00 | 0.00 | 42 | 1002.4 |
| 20260504011516 | 82 | 13 | 2.0 | 5.0 | 0.00 | 0.00 | 0.00 | 39 | 1002.4 |
| 20260504010015 | 83 | 9 | 2.0 | 5.0 | 0.00 | 0.00 | 0.00 | 36 | 1002.4 |
| 20260504004515 | 83 | 9 | 3.0 | 6.0 | 0.00 | 0.00 | 0.00 | 36 | 1002.4 |
| 20260504003014 | 85 | 13 | 4.0 | 7.0 | 0.00 | 0.00 | 0.00 | 36 | 1002.4 |
| 20260504001522 | 85 | 13 | 5.0 | 7.0 | 0.00 | 0.00 | 0.00 | 34 | 1002.4 |
| 20260504000011 | 84 | 12 | 3.0 | 9.0 | 0.00 | 0.00 | 0.00 | 35 | 1002.4 |
| 20260503234510 | 84 | 5 | 2.0 | 8.0 | 0.00 | 0.00 | 0.00 | 36 | 1002.4 |
| 20260503233017 | 84 | 15 | 6.0 | 9.0 | 0.00 | 0.00 | 0.00 | 36 | 1002.4 |
| 20260503231508 | 83 | 10 | 5.0 | 7.0 | 0.00 | 0.00 | 0.00 | 44 | 1002.4 |
| 20260503230028 | 83 | 16 | 4.0 | 8.0 | 0.00 | 0.00 | 0.00 | 42 | 1002.4 |
| 20260503224506 | 83 | 21 | 5.0 | 9.0 | 0.00 | 0.00 | 0.00 | 43 | 1002.4 |
| 20260503223005 | 83 | 17 | 4.0 | 10.0 | 0.00 | 0.00 | 0.00 | 46 | 1002.4 |
| 20260503221504 | 82 | 15 | 5.0 | 8.0 | 0.00 | 0.00 | 0.00 | 45 | 1002.4 |
| 20260503220002 | 82 | 13 | 5.0 | 9.0 | 0.00 | 0.00 | 0.00 | 45 | 1002.4 |
| 20260503214559 | 82 | 20 | 5.0 | 7.0 | 0.00 | 0.00 | 0.00 | 52 | 1002.4 |
| 20260503213102 | 81 | 15 | 3.0 | 5.0 | 0.00 | 0.00 | 0.00 | 54 | 1002.4 |
| 20260503211559 | 81 | 15 | 0.0 | 3.0 | 0.00 | 0.00 | 0.00 | 62 | 1002.4 |
| 20260503210056 | 81 | 15 | 0.0 | 2.0 | 0.00 | 0.00 | 0.00 | 57 | 1002.4 |
| 20260503204616 | 80 | 18 | 0.0 | 5.0 | 0.00 | 0.00 | 0.00 | 59 | 1002.4 |
| 20260503203054 | 80 | 41 | 0.0 | 1.0 | 0.00 | 0.00 | 0.00 | 58 | 1002.4 |
| 20260503201551 | 80 | 115 | 0.0 | 3.0 | 0.00 | 0.00 | 0.00 | 57 | 1002.4 |
| 20260503200046 | 78 | 17 | 0.0 | 4.0 | 0.00 | 0.00 | 0.00 | 64 | 1002.4 |
| 20260503194546 | 77 | 16 | 0.0 | 3.0 | 0.00 | 0.00 | 0.00 | 63 | 1002.4 |
| 20260503193046 | 76 | 15 | 3.0 | 5.0 | 0.00 | 0.00 | 0.00 | 66 | 1002.4 |
| 20260503191604 | 75 | 16 | 2.0 | 5.0 | 0.00 | 0.00 | 0.00 | 67 | 1002.4 |
| 20260503190041 | 74 | 17 | 0.0 | 4.0 | 0.00 | 0.00 | 0.00 | 68 | 1002.4 |
| 20260503184537 | 74 | 21 | 0.0 | 6.0 | 0.00 | 0.00 | 0.00 | 66 | 1002.4 |
| 20260503183032 | 73 | 19 | 0.0 | 6.0 | 0.00 | 0.00 | 0.00 | 67 | 1002.4 |
| 20260503181545 | 72 | 77 | 0.0 | 2.0 | 0.00 | 0.00 | 0.00 | 71 | 1002.4 |
| 20260503180033 | 72 | 38 | 0.0 | 2.0 | 0.00 | 0.00 | 0.00 | 69 | 1002.4 |
| 20260503174534 | 73 | 138 | 0.0 | 3.0 | 0.00 | 0.00 | 0.00 | 67 | 1002.4 |
| 20260503173027 | 71 | 141 | 0.0 | 5.0 | 0.00 | 0.00 | 0.00 | 69 | 1002.4 |
| 20260503171524 | 69 | 170 | 0.0 | 0.0 | 0.00 | 0.00 | 0.00 | 73 | 1002.4 |
| 20260503081534 | 54 | 26 | 0.0 | 0.0 | 0.00 | 0.01 | 0.00 | 91 | 1002.4 |
| 20260503071520 | 55 | 24 | 0.0 | 0.0 | 0.00 | 0.01 | 0.00 | 88 | 1002.4 |